Worland, WY

9:06 AM MDT on March 24, 2017 (GMT -0600)
Worland Municipal

Weather History for KWRL - April, 2013

Change the Weather History Date:

Sunday, April 14, 2013

  Actual Average Record
Temperature  
Mean Temperature 37 °F 45 °F  
Max Temperature 45 °F 60 °F 84 °F (2002)
Min Temperature 28 °F 31 °F 10 °F (1986)
Degree Days  
Heating Degree Days 28 20  
Month to date heating degree days 326 303  
Since 1 July heating degree days 6781 7189  
Cooling Degree Days 0 0  
Month to date cooling degree days 0 0  
Year to date cooling degree days 0 0  
Moisture  
Dew Point 22 °F    
Average Humidity 52    
Maximum Humidity 78    
Minimum Humidity 25    
Precipitation  
Precipitation T in 0.03 in 0.54 in (1998)
Month to date precipitation 0.28 0.29  
Year to date precipitation 0.87 1.17  
Sea Level Pressure  
Sea Level Pressure 29.70 in    
Wind  
Wind Speed 12 mph (NW)    
Max Wind Speed 36 mph    
Max Gust Speed 48 mph    
Visibility 8 miles    
Events Snow    
T = Trace of Precipitation, MM = Missing Value Source: NWS Daily Summary

Daily Weather History Graph

Daily Weather History Graph

Search for Another Location

Airport or City:

Trip Planner

Search our weather history database for the weather conditions in past years. The results will help you decide how hot, cold, wet, or windy it might be!

Date:

Astronomy

Apr. 14, 2013 Rise Set
Actual Time 6:29 AM MDT 7:54 PM MDT
Civil Twilight 5:59 AM MDT 8:25 PM MDT
Nautical Twilight 5:23 AM MDT 9:01 PM MDT
Astronomical Twilight 4:45 AM MDT 9:40 PM MDT
Moon 9:03 AM MDT (4/14) No Moon Set
Length of Visible Light 14h 25m
Length of Day
13h 25m
Waxing Crescent, 17% of the Moon is Illuminated
Apr 14
Waxing Crescent
Apr 18
First Quarter
Apr 25
Full
May 2
Last Quarter
May 9
New

Hourly Weather History & Observations

Time (MDT) Temp. Windchill Dew Point Humidity Pressure Visibility Wind Dir Wind Speed Gust Speed Precip Events Conditions
12:53 AM 34.0 °F 19.7 °F 19.9 °F 56% 29.56 in 10.0 mi NNW 33.4 mph 47.2 mph N/A   Overcast
1:27 AM 33.8 °F 19.6 °F 19.4 °F 56% 29.57 in 10.0 mi North 32.2 mph 48.3 mph N/A   Overcast
1:35 AM 33.8 °F 22.2 °F 17.6 °F 52% 29.58 in 10.0 mi NNW 20.7 mph 42.6 mph N/A   Overcast
1:53 AM 34.0 °F 21.0 °F 19.0 °F 54% 29.57 in 10.0 mi NNW 26.5 mph 47.2 mph N/A   Overcast
2:34 AM 30.2 °F 19.3 °F 24.8 °F 80% 29.58 in 3.0 mi North 15.0 mph 28.8 mph 0.00 in Snow Light Snow
2:41 AM 30.2 °F 18.9 °F 24.8 °F 80% 29.59 in 8.0 mi North 16.1 mph 24.2 mph 0.00 in   Overcast
2:53 AM 30.9 °F 20.7 °F 23.0 °F 72% 29.58 in 10.0 mi North 13.8 mph 24.2 mph 0.00 in   Overcast
3:53 AM 32.0 °F 25.6 °F 21.0 °F 64% 29.58 in 10.0 mi NW 6.9 mph - N/A   Overcast
4:53 AM 30.9 °F 25.2 °F 21.0 °F 67% 29.64 in 10.0 mi NNW 5.8 mph - N/A   Mostly Cloudy
5:53 AM 28.0 °F 22.8 °F 21.9 °F 78% 29.68 in 10.0 mi WSW 4.6 mph - N/A   Partly Cloudy
6:53 AM 28.0 °F 22.8 °F 23.0 °F 81% 29.70 in 10.0 mi West 4.6 mph - N/A   Partly Cloudy
7:53 AM 32.0 °F 23.0 °F 18.0 °F 56% 29.71 in 10.0 mi NNW 11.5 mph - N/A   Mostly Cloudy
8:53 AM 36.0 °F 25.6 °F 16.0 °F 44% 29.70 in 10.0 mi NW 18.4 mph - N/A   Clear
9:53 AM 37.0 °F 28.5 °F 15.1 °F 41% 29.70 in 10.0 mi NNW 13.8 mph - N/A   Clear
10:53 AM 39.0 °F 31.0 °F 12.0 °F 33% 29.71 in 10.0 mi NNW 13.8 mph 21.9 mph N/A   Mostly Cloudy
11:53 AM 41.0 °F 34.3 °F 10.9 °F 29% 29.71 in 10.0 mi NNW 11.5 mph 18.4 mph N/A   Overcast
12:53 PM 41.0 °F 33.5 °F 9.0 °F 27% 29.70 in 10.0 mi NW 13.8 mph 23.0 mph N/A   Overcast
2:14 PM 42.8 °F 35.4 °F 19.4 °F 39% 29.67 in 7.0 mi North 15.0 mph 26.5 mph N/A   Overcast
2:53 PM 41.0 °F 34.7 °F 21.9 °F 47% 29.72 in 10.0 mi North 10.4 mph - N/A   Partly Cloudy
3:45 PM 37.4 °F 29.8 °F 26.6 °F 65% 29.69 in 5.0 mi West 11.5 mph - 0.00 in Snow Light Snow
3:53 PM 39.9 °F 30.0 °F 21.9 °F 49% 29.74 in 9.0 mi NNW 21.9 mph - 0.00 in   Unknown
4:06 PM 35.6 °F 24.0 °F 24.8 °F 65% 29.70 in 1.8 mi NW 23.0 mph 28.8 mph 0.00 in Snow Light Snow
4:09 PM 35.6 °F 26.6 °F 26.6 °F 70% 29.70 in 0.8 mi NNW 13.8 mph 28.8 mph 0.00 in Snow Light Snow
4:18 PM 33.8 °F 23.2 °F 28.4 °F 81% 29.71 in 0.2 mi NNW 17.3 mph 25.3 mph 0.00 in Snow Heavy Snow
4:35 PM 33.8 °F 28.6 °F 30.2 °F 87% 29.70 in 1.0 mi NW 5.8 mph - 0.00 in Snow Light Snow
4:41 PM 33.8 °F 27.7 °F 30.2 °F 87% 29.70 in 3.0 mi West 6.9 mph - 0.00 in Snow Light Snow
4:50 PM 33.8 °F 25.8 °F 30.2 °F 87% 29.71 in 9.0 mi West 10.4 mph - 0.00 in   Overcast
4:53 PM 34.0 °F 23.8 °F 28.9 °F 82% 29.78 in 9.0 mi WNW 16.1 mph - 0.00 in   Overcast
5:27 PM 35.6 °F 26.6 °F 28.4 °F 75% 29.71 in 2.5 mi NNW 13.8 mph - 0.00 in Snow Light Snow
5:35 PM 37.4 °F 28.5 °F 28.4 °F 70% 29.71 in 9.0 mi NNW 15.0 mph - 0.00 in   Overcast
5:53 PM 37.0 °F 29.3 °F 28.0 °F 70% 29.78 in 10.0 mi NW 11.5 mph - 0.00 in   Scattered Clouds
6:53 PM 37.9 °F 28.5 °F 21.0 °F 51% 29.80 in 10.0 mi NNW 17.3 mph - N/A   Clear
7:53 PM 35.1 °F 27.9 °F 21.9 °F 59% 29.82 in 10.0 mi NNW 9.2 mph - N/A   Clear
8:53 PM 30.9 °F 25.2 °F 21.9 °F 69% 29.86 in 10.0 mi WNW 5.8 mph - N/A   Partly Cloudy
9:53 PM 30.0 °F 23.2 °F 21.9 °F 72% 29.88 in 10.0 mi West 6.9 mph - N/A   Partly Cloudy
10:53 PM 30.0 °F 21.1 °F 21.0 °F 69% 29.88 in 10.0 mi WNW 10.4 mph - N/A   Overcast
11:53 PM 28.0 °F 19.3 °F 19.0 °F 69% 29.87 in 10.0 mi NW 9.2 mph - N/A   Overcast